Weather History for KSXT - August, 2013

Change the Weather History Date:

Friday, August 9, 2013

  Actual Average Record
Temperature  
Mean Temperature 62 °F -  
Max Temperature 73 °F 76 °F 91 °F (1996)
Min Temperature 53 °F 53 °F 46 °F (2011)
Degree Days  
Heating Degree Days 2    
Growing Degree Days 12 (Base 50)    
Moisture  
Dew Point 54 °F    
Average Humidity 82    
Maximum Humidity 100    
Minimum Humidity 49    
Precipitation  
Precipitation 0.19 in - - ()
Sea Level Pressure  
Sea Level Pressure 29.93 in    
Wind  
Wind Speed 6 mph (North)    
Max Wind Speed 10 mph    
Max Gust Speed -    
Visibility 8 miles    
Events Fog , Rain    
Averages and records for this station are not official NWS values.
T = Trace of Precipitation, MM = Missing Value Source: NWS Daily Summary

Daily Weather History Graph

Daily Weather History Graph

Search for Another Location

Airport or City:

Trip Planner

Search our weather history database for the weather conditions in past years. The results will help you decide how hot, cold, wet, or windy it might be!

Date:

Astronomy

Aug. 09, 2013 Rise Set
Actual Time 6:14 AM PDT 8:22 PM PDT
Civil Twilight 5:43 AM PDT 8:53 PM PDT
Nautical Twilight 5:04 AM PDT 9:31 PM PDT
Astronomical Twilight 4:22 AM PDT 10:13 PM PDT
Moon 9:11 AM PDT (8/9) 9:29 PM PDT (8/9)
Length of Visible Light 15h 10m
Length of Day
14h 08m
Waxing Crescent, 8% of the Moon is Illuminated
Aug 9
Waxing Crescent
Aug 14
First Quarter
Aug 20
Full
Aug 28
Last Quarter
Sep 5
New

Hourly Weather History & Observations

Time (PDT) Temp. Dew Point Humidity Pressure Visibility Wind Dir Wind Speed Gust Speed Precip Events Conditions
12:49 AM 57.2 °F 53.6 °F 88% 30.05 in 4.0 mi North 10.4 mph - N/A   Overcast
12:56 AM 57.9 °F 54.0 °F 87% 29.92 in 6.0 mi North 10.4 mph - N/A   Overcast
1:56 AM 57.9 °F 54.0 °F 87% 29.91 in 10.0 mi North 8.1 mph - N/A   Mostly Cloudy
2:56 AM 57.0 °F 54.0 °F 89% 29.90 in 10.0 mi North 9.2 mph - N/A   Mostly Cloudy
3:56 AM 57.0 °F 54.0 °F 89% 29.90 in 10.0 mi NNE 9.2 mph - N/A   Clear
4:56 AM 57.0 °F 54.0 °F 89% 29.88 in 10.0 mi NNE 8.1 mph - N/A   Clear
5:56 AM 57.9 °F 53.1 °F 84% 29.89 in 10.0 mi NE 6.9 mph - N/A   Clear
6:56 AM 57.9 °F 53.1 °F 84% 29.89 in 10.0 mi ESE 4.6 mph - N/A   Clear
7:56 AM 60.1 °F 53.1 °F 78% 29.90 in 10.0 mi Variable 4.6 mph - N/A   Clear
8:56 AM 62.1 °F 54.0 °F 75% 29.89 in 10.0 mi Variable 4.6 mph - N/A   Clear
9:56 AM 62.1 °F 55.0 °F 78% 29.89 in 10.0 mi Calm Calm - N/A   Clear
10:56 AM 62.1 °F 55.0 °F 78% 29.90 in 10.0 mi Calm Calm - N/A   Clear
11:56 AM 64.9 °F 55.0 °F 70% 29.90 in 10.0 mi Calm Calm - N/A   Clear
12:56 PM 66.9 °F 57.0 °F 70% 29.89 in 10.0 mi Calm Calm - N/A   Clear
1:56 PM 69.1 °F 55.9 °F 63% 29.89 in 10.0 mi Variable 4.6 mph - N/A   Mostly Cloudy
2:56 PM 71.1 °F 55.0 °F 57% 29.88 in 10.0 mi Variable 4.6 mph - N/A   Partly Cloudy
3:56 PM 72.0 °F 52.0 °F 49% 29.87 in 10.0 mi Calm Calm - N/A   Clear
4:56 PM 70.0 °F 51.1 °F 51% 29.86 in 10.0 mi Calm Calm - N/A   Partly Cloudy
5:56 PM 66.9 °F 48.0 °F 51% 29.88 in 10.0 mi Calm Calm - N/A   Scattered Clouds
6:45 PM 57.2 °F 57.2 °F 100% 30.01 in 1.8 mi Variable 5.8 mph - 0.04 in Rain Light Rain
6:49 PM 55.4 °F 55.4 °F 100% 30.01 in 0.8 mi NNW 5.8 mph - 0.07 in Rain Rain
6:56 PM 55.9 °F 55.9 °F 100% 29.92 in 0.2 mi NNW 5.8 mph - 0.15 in Fog , Rain Rain
7:21 PM 55.4 °F 55.4 °F 100% 30.01 in 1.0 mi Variable 4.6 mph - 0.04 in Rain Light Rain
7:27 PM 53.6 °F 53.6 °F 100% 30.01 in 1.8 mi Variable 5.8 mph - 0.04 in   Overcast
7:34 PM 53.6 °F 53.6 °F 100% 30.02 in 2.5 mi NNW 5.8 mph - 0.04 in   Mostly Cloudy
7:45 PM 53.6 °F 53.6 °F 100% 30.02 in 4.0 mi NNW 5.8 mph - 0.04 in   Scattered Clouds
7:56 PM 53.1 °F 53.1 °F 100% 29.93 in 9.0 mi Variable 4.6 mph - 0.04 in   Partly Cloudy
8:56 PM 59.0 °F 52.0 °F 78% 29.94 in 10.0 mi WSW 4.6 mph - N/A   Mostly Cloudy
9:56 PM 55.0 °F 48.0 °F 77% 29.94 in 10.0 mi NNW 6.9 mph - N/A   Clear
10:56 PM 55.9 °F 50.0 °F 80% 29.94 in 8.0 mi North 9.2 mph - N/A   Clear
11:56 PM 55.9 °F 50.0 °F 80% 29.94 in 6.0 mi North 5.8 mph - N/A   Haze